This demonstration page uses our WeatherBlox Daily Observations layout. Learn more.

Left ArrowRight Arrow

38.20091, -84.87328

Hourly Observations for July 21, 2015

Temp ( °F °C ) Dew Point ( °F °C ) Humidity (%) Winds ( mph kmh ) Pressure ( in mb ) Visibility ( mi km ) Precip ( " mm )
12:14 am 00:14 Mostly Cloudy with Mist and Fog 77 25 73 22.8 88 88 WSW 5 7 29.77 1008 5 8 0.00 0.00
12:50 am 00:50 Cloudy with Nearby Thunderstorms 77 25 73 23 89 89 SW 5 7 29.77 1008 4 6 0.01 0.25
12:53 am 00:53 Cloudy with Nearby Thunderstorms 77 25 74 23.3 90 90 SW 6 9 29.77 1008 3 5 0.01 0.25
1:01 am 01:01 Cloudy with Thunderstorms 76 24.4 72 22.2 88 88 SW 14 22 29.77 1008 3 4 0.03 0.76
1:08 am 01:08 Cloudy with Strong Thunderstorms 74 23.3 71 21.7 91 91 SW 16 26 29.80 1009 3 4 0.07 1.78
1:15 am 01:15 Cloudy with Thunderstorms 74 23.3 71 21.7 91 91 W 13 20 29.80 1009 2 3 0.18 4.57
1:20 am 01:20 Cloudy with Strong Thunderstorms 73 22.8 71 21.7 94 94 W 16 26 29.80 1009 1 1 0.40 10.16
1:29 am 01:29 Cloudy with Strong Thunderstorms 73 22.8 70 21.1 90 90 WNW 9 15 29.80 1009 1 1 0.69 17.53
1:34 am 01:34 Cloudy with Rain 73 22.8 70 21.1 90 90 WNW 10 17 29.77 1008 1 2 0.71 18.03
1:38 am 01:38 Cloudy with Rain 73 22.8 70 21.1 90 90 NW 7 11 29.77 1008 3 5 0.71 18.03
1:50 am 01:50 Cloudy 73 23 70 21 89 89 Calm 29.77 1008 10 16 0.71 18.03
1:53 am 01:53 Cloudy 73 22.8 70 21.1 90 90 Calm 29.77 1008 10 16 0.71 18.03
2:53 am 02:53 Cloudy 73 22.8 71 21.7 94 94 SW 5 7 29.75 1008 9 14 0.00 0.00
3:53 am 03:53 Mostly Clear 73 22.8 70 21.1 90 90 SW 5 7 29.74 1007 9 14 0.00 0.00
4:53 am 04:53 Partly Cloudy 72 22.2 70 21.1 94 94 WSW 5 7 29.72 1007 10 16 0.00 0.00
4:59 am 04:59 Mostly Cloudy 72 22.2 70 21.1 94 94 WSW 3 6 29.71 1006 10 16 0.00 0.00
5:53 am 05:53 Cloudy 72 22.2 70 21.1 94 94 W 6 9 29.72 1007 10 16 0.00 0.00
6:26 am 06:26 Cloudy 73 22.8 70 21.1 90 90 WSW 5 7 29.74 1007 9 14 0.00 0.00
6:53 am 06:53 Cloudy 73 22.8 70 21.1 90 90 W 5 7 29.75 1007 7 11 0.00 0.00
7:06 am 07:06 Cloudy with Mist and Fog 73 22.8 70 21.1 90 90 WSW 3 6 29.74 1007 6 10 0.00 0.00
7:53 am 07:53 Mostly Cloudy with Mist and Fog 73 22.8 71 21.7 94 94 W 5 7 29.77 1008 6 10 0.00 0.00
8:53 am 08:53 Cloudy 75 23.9 70 21.1 84 84 W 6 9 29.79 1009 8 13 0.00 0.00
9:53 am 09:53 Cloudy 75 23.9 69 20.6 82 82 NW 6 9 29.81 1009 9 14 0.00 0.00
10:24 am 10:24 Cloudy 75 23.9 69 20.6 82 82 WNW 5 7 29.80 1009 9 14 0.00 0.00
10:53 am 10:53 Mostly Cloudy 77 25 69 20.6 77 77 NW 7 11 29.81 1009 10 16 0.00 0.00
11:51 am 11:51 Cloudy 79 26 70 21 74 74 NW 7 11 29.83 1010 10 16 0.00 0.00
11:53 am 11:53 Cloudy 79 26.1 68 20 69 69 NW 7 11 29.83 1010 10 16 0.00 0.00
12:37 pm 12:37 Mostly Cloudy 80 26.7 68 20 67 67 VRB 5 7 29.83 1010 10 16 0.00 0.00
12:53 pm 12:53 Mostly Cloudy 80 26.7 67 19.4 64 64 WNW 6 9 29.83 1010 10 16 0.00 0.00
1:10 pm 13:10 Mostly Cloudy 82 27.8 68 20 63 63 WNW 7 11 29.83 1010 10 16 0.00 0.00
1:53 pm 13:53 Mostly Sunny 83 28.3 66 18.9 57 57 W 7 11 29.84 1010 10 16 0.00 0.00
2:53 pm 14:53 Mostly Sunny 84 28.9 66 18.9 55 55 VRB 7 11 29.83 1010 10 16 0.00 0.00
3:53 pm 15:53 Sunny 85 29.4 68 20 57 57 WNW 8 13 29.82 1010 10 16 0.00 0.00
4:53 pm 16:53 Mostly Sunny 86 30 67 19.4 53 53 WNW 7 11 29.80 1009 10 16 0.00 0.00
5:53 pm 17:53 Sunny 85 29.4 65 18.3 51 51 WNW 7 11 29.79 1009 10 16 0.00 0.00
6:53 pm 18:53 Sunny 84 28.9 66 18.9 55 55 NW 5 7 29.79 1009 10 16 0.00 0.00
7:53 pm 19:53 Mostly Cloudy 82 27.8 67 19.4 60 60 NNW 6 9 29.81 1010 10 16 0.00 0.00
8:53 pm 20:53 Mostly Cloudy 79 26.1 66 18.9 65 65 NW 3 6 29.84 1010 10 16 0.00 0.00
9:53 pm 21:53 Clear 77 25 65 18.3 66 66 NW 3 6 29.86 1011 10 16 0.00 0.00
10:53 pm 22:53 Clear 74 23.3 65 18.3 74 74 NW 5 7 29.87 1012 10 16 0.00 0.00
11:53 pm 23:53 Clear 73 22.8 64 17.8 74 74 NNW 5 7 29.88 1012 10 16 0.00 0.00

Powered by AerisWeather